Location: Tervam�ki
(61.5167°N, 22.9000°E)
Time: 23:46:05
(UTC+00:00)

Daily predictions for brighter satellites

Satellite Brightness Start Highest point End
(mag) Time Altitude Azimuth Time Altitude Azimuth Time Altitude Azimuth
NOSS 3-1 (A) 3.6 17:09:46 10° SW 17:15:28 58° SE 17:22:17 10° ENE
Cosmos 1802 Rocket 4.4 17:14:29 10° SSW 17:20:37 69° WNW 17:26:47 10° NNE
MOS 1 Rocket 3.7 17:16:46 10° NNE 17:21:08 39° E 17:25:16 10° SSE
USA 186 1.8 17:20:14 10° SSE 17:23:23 60° ENE 17:26:39 10° N
Cosmos 1937 Rocket 4.0 17:19:26 10° S 17:24:11 36° ESE 17:28:56 10° NE
COSMOS 2406 3.7 17:18:45 10° NW 17:24:17 48° NNE 17:29:47 10° ESE
Meteor 1-24 Rocket 4.5 17:21:20 10° N 17:26:14 34° NE 17:31:16 10° ESE
Cosmos 1842 4.3 17:24:07 10° NNW 17:27:54 51° W 17:31:39 10° S
Cosmos 2297 Rocket 2.7 17:23:20 10° WSW 17:28:59 65° NW 17:34:40 10° NE
Cosmos 1544 3.1 17:26:15 10° SSW 17:29:55 88° ESE 17:33:36 10° NNE
Cosmos 1674 3.3 17:26:37 10° N 17:30:15 38° ENE 17:33:53 10° SE
In-Cosmos 22 4.1 17:25:01 10° NNW 17:30:21 74° ENE 17:35:40 10° SSE
Cosmos 1975 Rocket 3.5 17:26:38 10° NNW 17:30:59 66° W 17:35:16 10° S
OBJECT-B 1.5 17:29:10 10° SE 17:32:11 37° ENE 17:35:14 10° N
Cosmos 2082 3.8 17:27:11 10° SW 17:32:49 88° NW 17:38:32 10° NE
COSMO-SKYMED 1 3.1 17:29:18 10° NNE 17:33:38 65° WNW 17:37:57 10° SSW
Cosmos 1689 Rocket 4.0 17:34:04 10° N 17:36:52 35° WNW 17:39:38 10° SW
FREGAT/IRIS 2.2 17:35:53 10° SSE 17:38:28 60° ENE 17:41:03 10° N
CZ-2C R/B 3.3 17:34:10 10° NNE 17:39:11 35° E 17:44:14 10° SSE
DMSP B5D1-3 4.5 17:35:56 10° NNE 17:41:03 70° ESE 17:46:08 10° S
ERS-1 Rocket 4.4 17:37:41 10° E 17:41:35 23° NE 17:45:28 10° N
CENTAUR R/B 3.3 17:34:53 10° WNW 17:42:22 75° SSW 17:50:55 10° SE
OPS 8737 4.0 17:39:33 10° WSW 17:42:34 84° NNW 17:45:27 10° ENE
Cosmos 1707 2.9 17:38:42 10° NNW 17:42:35 79° WSW 17:46:25 10° S
H-2A R/B 2.8 17:39:05 10° S 17:43:59 56° WSW 17:49:04 10° NNW
ARGOS 3.6 17:38:57 10° S 17:44:18 69° WSW 17:49:42 10° NNW
Lacrosse 4 Rocket 2.2 17:41:55 10° NW 17:45:47 40° NNE 17:49:36 10° E
Resurs 01 Rocket 2.1 17:42:10 10° SE 17:46:23 43° ENE 17:50:37 10° N
Cosmos 909 Rocket 4.4 17:39:30 10° WNW 17:46:55 68° NNE 17:53:07 11° E
Cosmos 1048 Rocket 4.1 17:41:48 10° NW 17:47:07 83° WSW 17:52:28 10° SSE
KORONAS-FOTON 4.1 17:43:51 10° N 17:47:42 50° ENE 17:51:33 10° SE
ATLAS 3B R/B 2.8 17:42:11 10° WNW 17:48:56 83° NNE 17:55:34 12° ESE
MOS 1 4.4 17:44:12 10° SSE 17:49:55 90° ENE 17:55:42 10° NNW
USA 238 DEB 4.3 17:43:07 10° WNW 17:50:02 59° SW 17:57:15 10° SE
USA 238 4.3 17:43:13 10° WNW 17:50:08 59° SW 17:57:22 10° SE
Cosmos 1743 3.9 17:47:23 10° SW 17:51:06 47° WNW 17:54:50 10° N
Iridium 4 Rocket 4.1 17:46:46 10° SSW 17:51:52 67° W 17:57:28 10° N
SJ-6B 2.7 17:48:23 10° SSE 17:52:08 90° ENE 17:55:58 10° NNW
Sich 1 Rocket 3.7 17:48:43 10° S 17:53:10 61° E 17:57:41 10° NNE
Cosmos 1269 Rocket 4.2 17:50:51 10° NNW 17:56:09 63° NE 18:01:04 12° SE
NOSS 3-1 (C) 3.6 17:50:33 10° WSW 17:56:34 88° SSE 18:03:50 10° ENE
ATLAS CENTAUR R/B 1.2 17:52:53 10° WSW 17:56:44 82° NNW 18:00:28 10° ENE
SPOT 1/Viking Rocket 4.4 17:53:08 12° ESE 17:57:24 34° NE 18:02:03 10° N
Cosmos 2263 Rocket 2.2 17:54:41 10° SSW 18:00:08 58° ESE 18:05:40 10° NE
Cosmos 1513 Rocket 4.5 17:55:44 10° S 18:01:53 64° E 18:07:59 10° NNE
Meteor 2-9 Rocket 4.3 17:57:13 10° SSW 18:03:05 88° WNW 18:08:53 10° NNE
ARIANE 5 R/B 3.2 18:00:10 13° SE 18:03:41 40° ENE 18:07:46 10° N
IGS 5A 4.3 18:00:40 14° ESE 18:03:43 34° ENE 18:07:29 10° N
SL-08 RB Rocket 4.3 17:59:26 10° S 18:03:58 61° WSW 18:08:30 10° NNW
MetOp-B 4.5 17:59:48 11° SE 18:04:45 50° ENE 18:09:56 10° NNW
NOSS 2-3 (E) 4.0 18:01:11 10° WSW 18:05:52 79° SSE 18:11:54 10° ENE
Cosmos 1844 Rocket 3.7 18:03:33 10° SSE 18:07:55 24° ESE 18:12:18 10° NE
Cosmos 1092 Rocket 4.0 18:02:19 10° NNW 18:08:30 69° ENE 18:14:39 10° SSE
SJ 16-02 1.8 18:04:16 10° SW 18:08:38 67° NW 18:13:02 10° NNE
Cosmos 990 Rocket 3.9 18:03:53 10° SSW 18:09:02 84° ESE 18:14:14 10° NE
Cosmos 2227 4.2 18:04:03 10° SSW 18:09:44 68° SE 18:15:25 10° NE
Cosmos 1464 Rocket 3.9 18:03:52 10° S 18:09:57 68° E 18:16:07 10° NNE
Cosmos 2084 3.6 18:06:20 10° W 18:10:48 81° NNW 18:15:18 10° ENE
Spot 2 Rocket 4.0 18:07:56 14° SE 18:11:54 43° ENE 18:16:40 10° NNW
Okean 2 Rocket 3.1 18:08:57 10° S 18:13:24 63° E 18:17:51 10° NNE
MONITOR-E 2.8 18:12:57 25° SSE 18:13:53 79° ENE 18:15:48 10° NNW
Cosmos 2026 Rocket 4.1 18:09:44 10° NNW 18:16:03 63° ENE 18:22:21 10° SSE
Lacrosse 5 rocket 2.0 18:12:26 10° SW 18:16:33 42° SSE 18:19:36 17° ESE
Meteor 2-13 Rocket 4.4 18:11:38 10° NNW 18:17:51 79° ENE 18:24:02 10° SSE
Okean 1 Rocket 3.9 18:14:13 11° SSE 18:18:05 32° E 18:22:05 10° NNE
Ariane Rocket 3.7 18:13:41 10° S 18:18:41 57° WSW 18:23:43 10° NNW
USA 116 4.3 18:15:34 10° N 18:18:43 51° WNW 18:22:07 10° SW
Meteor 1-12 Rocket 4.3 18:13:28 10° S 18:19:19 69° ESE 18:25:05 10° NNE
Cosmos 1340 Rocket 4.4 18:19:45 17° E 18:20:07 17° E 18:22:43 10° NE
Cosmos 494 Rocket 4.2 18:15:06 10° NW 18:20:21 73° WSW 18:25:34 10° SSE
Cosmos 1833 Rocket 2.8 18:16:11 10° NW 18:21:51 66° NE 18:26:05 18° ESE
CZ-2C R/B 4.4 18:19:54 10° NNE 18:23:55 32° E 18:27:16 14° SSE
NOSS 2-2 (C) 4.2 18:21:27 10° S 18:24:31 25° SE 18:28:04 10° ENE
Resurs 1-3 3.7 18:21:08 10° SSE 18:25:33 81° WSW 18:30:00 10° NNW
Cosmos 2227 Rocket 3.3 18:20:51 10° WSW 18:26:17 46° NNW 18:31:45 10° NE
Cosmos 1300 Rocket 3.5 18:22:17 10° S 18:26:42 76° E 18:31:10 10° NNE
Cosmos 1461 3.7 18:22:06 10° WNW 18:26:46 58° N 18:30:43 15° E
Cosmos 2298 Rocket 4.4 18:22:40 10° S 18:27:38 41° ESE 18:32:38 10° NE
Cosmos 2251 Rocket 4.1 18:23:31 10° NNW 18:28:45 47° NE 18:32:20 19° ESE
SPOT 3 Rocket 3.6 18:23:35 10° SSE 18:28:45 82° WSW 18:33:58 10° NNW
NOSS 2-3 (D) 4.0 18:27:20 10° WSW 18:32:07 89° SSE 18:38:15 10° ENE
USA 245 3.0 18:33:53 31° E 18:34:22 35° ENE 18:36:38 10° N
Cosmos 1536 Rocket 4.4 18:30:40 10° NNW 18:34:59 53° W 18:39:19 10° S
Cosmos 1898 Rocket 3.7 18:31:01 10° SW 18:36:12 77° NW 18:41:27 10° NE
USA 234 4.2 18:32:17 10° E 18:37:27 24° SE 18:42:35 10° S
Cosmos 1891 Rocket 4.5 18:31:37 10° SSW 18:37:44 85° WNW 18:43:50 10° NNE
Cosmos 1892 Rocket 3.7 18:36:05 10° N 18:40:24 57° ENE 18:42:56 23° SE
Cosmos 1626 2.0 18:37:19 10° NNW 18:41:03 75° ENE 18:43:18 23° SSE
DMSP B5D2-2 4.0 18:37:08 10° NNE 18:42:28 71° ESE 18:47:45 10° S
Meteor 2-5 Rocket 3.8 18:37:02 10° NNW 18:42:40 84° WSW 18:48:06 11° SSE
Terra 2.8 18:40:19 21° ESE 18:42:43 33° NE 18:46:59 10° N
USA 229 DEB 3.8 18:47:26 10° W 18:54:15 81° NNW 19:01:33 10° ENE
CARTOSAT-1 4.0 18:52:23 28° ESE 18:54:18 47° ENE 18:58:27 10° N
USA 229 3.8 18:47:32 10° WSW 18:54:20 81° NNW 19:01:38 10° ENE
Cosmos 2151 Rocket 3.6 18:50:08 10° SSW 18:54:37 85° WNW 18:59:11 10° NNE
Cosmos 372 Rocket 3.9 18:50:03 10° SSW 18:55:17 74° ESE 19:00:31 10° NE
Cosmos 2150 Rocket 4.1 18:52:26 10° SSW 18:57:43 58° ESE 19:03:06 10° NE
NOSS 2-3 (C) 4.2 18:53:54 10° WSW 18:58:48 81° NNW 19:05:10 10° ENE
MOS 1 Rocket 4.3 18:55:04 10° N 18:59:33 46° WNW 19:03:47 10° SW
Cosmos 2082 Rocket 2.2 18:55:57 10° NW 19:01:36 72° NE 19:04:43 27° ESE
Cosmos 1805 3.1 19:00:43 19° S 19:03:26 67° E 19:07:22 10° NNE
SPOT 5 3.3 19:00:55 27° SE 19:03:36 55° ENE 19:08:50 10° NNW
OBJECT-B 2.7 19:01:45 10° SSW 19:04:38 29° W 19:07:32 10° NNW
Cosmos 1674 4.2 19:02:14 10° NNW 19:05:48 36° W 19:09:21 10° SSW
Cosmos 1937 Rocket 3.9 19:00:44 10° SW 19:05:58 66° NW 19:11:10 10° NNE
NOSS 3-1 (A) 3.7 19:00:07 10° WSW 19:06:17 82° NNW 19:13:45 10° ENE
Cosmos 2034 Rocket 4.2 19:00:35 10° SSW 19:06:59 80° WNW 19:13:22 10° NNE
Okean 1-7 Rocket 3.6 19:02:27 10° NNW 19:07:03 73° ENE 19:09:15 30° SSE
Cosmos 1125 Rocket 3.7 19:03:33 10° S 19:08:41 51° ESE 19:13:51 10° NE
COSMOS 2406 3.4 19:03:16 10° NW 19:08:55 70° SW 19:12:17 25° SSE
Meteor 1-24 Rocket 3.9 19:04:25 10° NNW 19:09:50 71° WSW 19:14:11 17° S
Exosat Rocket 3.7 19:04:58 10° S 19:09:55 45° ESE 19:14:45 10° NE
NOSS 8 (A) 4.5 19:09:42 10° WNW 19:12:58 78° SSW 19:14:06 43° SE
Cosmos 2297 Rocket 3.7 19:08:46 10° W 19:13:58 35° NNW 19:19:10 10° NE
SL-14 R/B 3.6 19:10:10 10° NNW 19:14:03 64° W 19:16:09 25° S
CRYOSAT 2 4.3 19:09:57 10° N 19:14:53 71° E 19:17:48 24° S
NOSS 8 (H) 4.1 19:14:31 10° SW 19:17:30 64° SSE 19:17:32 64° SE
NOSS 8 (E) 4.0 19:14:34 10° WSW 19:17:35 81° SSE 19:18:18 50° ENE
Cosmos 2266 Rocket 4.0 19:12:00 10° NNW 19:18:03 61° ENE 19:21:01 30° SE
Cosmos 614 Rocket 4.4 19:13:13 10° NNW 19:18:19 51° NE 19:20:34 30° ESE
Cosmos 1726 4.0 19:20:00 18° ENE 19:20:00 18° ENE 19:21:39 10° NE
Cosmos 1733 3.1 19:17:21 34° S 19:18:56 71° E 19:22:46 10° NNE
Cosmos 2098 Rocket 4.3 19:11:56 10° NNW 19:19:24 73° ENE 19:23:23 27° SSE
ERS-1 Rocket 2.9 19:17:24 32° SE 19:19:44 73° ENE 19:24:47 10° NNW
CZ-2C R/B 3.1 19:14:25 10° NNE 19:19:52 67° WNW 19:25:24 10° SSW
NOSS 2-2 (E) 3.4 19:17:47 10° SW 19:21:29 57° SE 19:26:07 10° ENE
Cosmos 1602 Rocket 4.0 19:17:54 10° N 19:22:09 46° ENE 19:23:14 38° ESE
Resurs 01 Rocket 2.7 19:19:16 13° SSW 19:22:57 43° W 19:27:13 10° NNW
Cosmos 2292 Rocket 2.8 19:20:44 10° N 19:23:47 56° ENE 19:23:47 56° ENE
Cosmos 1655 Rocket 4.0 19:17:47 10° NNW 19:24:05 77° ENE 19:27:33 28° SSE
Meteor 1-21 Rocket 4.3 19:18:26 10° NNW 19:24:07 66° ENE 19:26:43 33° SE
Cosmos 1703 4.1 19:20:58 10° N 19:24:33 33° ENE 19:24:59 32° ENE
Lacrosse 4 Rocket 1.2 19:20:44 10° NW 19:24:49 85° SW 19:25:54 48° SE
Cosmos 1953 4.0 19:28:08 20° ENE 19:28:08 20° ENE 19:30:23 10° NE
ATLAS 2AS CENTAUR R/B 3.6 19:24:48 26° SSE 19:27:23 31° ESE 19:33:58 10° ENE
Landsat 7 4.1 19:25:47 25° S 19:28:32 66° WSW 19:33:19 10° NNW
NOSS 2-2 (D) 3.4 19:26:18 10° SW 19:29:56 55° SE 19:32:27 23° ENE
OPS 8737 4.3 19:28:52 10° WNW 19:31:42 61° N 19:31:51 60° NNE
CENTAUR R/B 4.1 19:25:34 10° WNW 19:32:34 37° SW 19:38:33 16° S
ATLAS CENTAUR R/B 1.8 19:32:13 10° W 19:35:54 51° N 19:37:32 28° ENE
Cosmos 1766 3.3 19:33:40 25° SSW 19:35:54 78° WNW 19:39:54 10° NNE
Cosmos 1626 Rocket 3.5 19:32:04 10° NNW 19:36:30 71° ENE 19:37:37 48° SE
SPOT 1/Viking Rocket 3.7 19:33:46 27° S 19:36:35 69° WSW 19:41:46 10° NNW
Cosmos 1470 3.0 19:38:04 47° E 19:38:04 47° E 19:41:39 10° NNE
IGS 5A 4.1 19:37:08 27° SSW 19:39:06 50° W 19:43:10 10° NNW
Cosmos 1844 3.6 19:33:35 10° SSW 19:39:10 61° ESE 19:44:44 10° NE
ATLAS 3B R/B 3.0 19:32:57 10° WNW 19:39:31 55° SW 19:42:49 30° SSE
Cosmos 2278 Rocket 3.4 19:40:44 24° E 19:40:44 24° E 19:44:14 10° NE
ARIANE 5 R/B 3.5 19:37:43 22° SSW 19:40:10 45° W 19:44:22 10° NNW
Cosmos 1634 Rocket 3.9 19:34:23 10° SSW 19:40:30 89° WNW 19:46:47 10° NNE
Cosmos 1758 3.8 19:42:09 43° E 19:42:09 43° E 19:45:41 10° NNE
Cosmos 2263 Rocket 2.9 19:38:45 10° WSW 19:44:15 54° NW 19:49:47 10° NE
Cosmos 2285 Rocket 3.9 19:39:14 10° SSW 19:45:32 74° ESE 19:51:55 10° NE
Cosmos 1455 Rocket 3.1 19:45:55 54° SE 19:46:30 60° E 19:50:50 10° NNE
Cosmos 909 Rocket 4.3 19:40:29 10° NW 19:47:20 64° SW 19:50:00 35° SSE
NOSS 3-1 (C) 3.8 19:41:23 10° W 19:47:47 77° N 19:54:08 16° E
SJ 16-02 3.8 19:44:29 10° W 19:48:01 23° NNW 19:51:33 10° NNE
Meteor 2-10 4.5 19:48:52 41° SE 19:49:51 45° E 19:54:59 10° NNE
Cosmos 1328 4.3 19:46:03 10° N 19:49:56 45° ENE 19:50:06 44° ENE
Cosmos 2084 3.5 19:46:03 10° WNW 19:50:33 81° NNE 19:51:49 46° E
Spot 2 Rocket 4.1 19:48:07 25° SSW 19:50:52 51° W 19:55:50 10° NNW
Cosmos 1844 Rocket 2.5 19:45:31 10° SSW 19:51:06 79° SE 19:56:45 10° NE
Uosat 12 SS-18 rocket 4.0 19:49:58 10° WNW 19:54:17 80° NNE 19:55:21 51° E
Lacrosse 5 rocket 1.9 19:51:04 10° W 19:55:13 46° SSW 19:55:13 46° SSW
Okean 1 Rocket 3.8 19:51:25 10° SSW 19:55:50 53° WNW 20:00:17 10° N
Cosmos 1340 Rocket 2.7 19:55:19 60° SSW 19:56:01 89° ESE 20:00:03 10° NNE
USA 290 3.1 19:53:37 10° NNW 19:56:23 43° NNE 19:56:23 43° NNE
NOSS 2-3 (E) 4.4 19:51:42 10° W 19:56:49 74° N 20:02:14 16° E
CZ-2C R/B 4.3 19:56:57 10° NNE 20:01:19 56° WNW 20:05:30 11° SW
Cosmos 1833 Rocket 3.4 20:00:20 10° NW 20:05:41 44° WSW 20:07:47 31° SSW
Cosmos 1461 3.1 20:01:26 10° WNW 20:06:13 87° SSW 20:07:05 60° SE
Cosmos 407 Rocket 3.5 20:03:36 10° NNW 20:08:46 72° NE 20:09:56 52° ESE
Cosmos 2180 Rocket 4.4 20:05:57 33° S 20:09:00 80° E 20:15:24 10° NNE
Cosmos 2251 Rocket 3.9 20:05:58 10° NW 20:11:15 58° WSW 20:12:49 42° S
Cosmos 2227 Rocket 3.8 20:06:31 10° WNW 20:11:35 32° N 20:16:38 10° ENE
H-2A R/B 3.5 20:08:16 10° NNE 20:12:31 81° WNW 20:13:28 53° SW
Cosmos 676 Rocket 4.5 20:08:16 10° NNW 20:13:25 52° NE 20:14:50 40° E
NOSS 2-2 (C) 3.3 20:10:40 10° WSW 20:14:29 83° SSE 20:19:21 10° ENE
Cosmos 1954 Rocket 4.4 20:10:50 10° NNW 20:15:57 53° NE 20:17:17 41° E
Terra 2.0 20:19:13 50° SSW 20:20:16 65° WSW 20:25:02 10° NNW
Cosmos 1758 Rocket 3.5 20:16:03 10° NNW 20:20:34 77° ENE 20:20:51 73° ESE
Cosmos 1140 Rocket 3.5 20:15:32 10° NNW 20:20:44 72° NE 20:21:42 56° ESE
Cosmos 1825 Rocket 3.6 20:17:04 10° NNW 20:21:27 66° ENE 20:21:36 65° E
USA 234 3.4 20:15:23 10° E 20:21:40 46° SSE 20:27:56 10° SW
NOSS 2-3 (D) 4.4 20:17:58 10° W 20:23:10 75° N 20:27:45 21° E
Cosmos 2279 Rocket 4.1 20:20:51 23° SSW 20:24:54 74° WNW 20:31:13 10° NNE
Spot 4 4.0 20:28:13 55° E 20:28:48 59° ENE 20:33:36 10° NNW
Meteor 1-16 Rocket 4.4 20:31:08 52° SE 20:31:58 57° E 20:37:46 10° NNE
SL-24 DEB 4.1 20:27:43 10° N 20:32:23 88° WNW 20:32:49 73° SSW
ALOS 2 3.4 20:33:26 39° ENE 20:33:38 39° ENE 20:37:45 10° N
Meteor 2-21 Rocket 4.4 20:28:20 10° NNW 20:34:34 88° WSW 20:36:18 51° S
Cosmos 1544 Rocket 3.5 20:38:54 70° WSW 20:39:13 74° WNW 20:43:34 10° NNE
SPOT 5 4.0 20:40:09 32° SW 20:41:52 41° W 20:46:55 10° NNW
Cosmos 2082 Rocket 3.0 20:40:17 10° NW 20:45:28 39° WSW 20:46:33 35° SW
USA 229 DEB 3.8 20:38:40 10° WNW 20:45:38 82° NNE 20:49:59 27° E
USA 229 3.8 20:38:45 10° WNW 20:45:43 81° NNE 20:50:05 27° E
Cosmos 1190 Rocket 3.8 20:42:57 10° NW 20:48:16 82° WSW 20:48:49 71° S
Cosmos 1340 4.2 20:46:05 10° N 20:48:55 29° NE 20:48:55 29° NE
NOSS 2-3 (C) 4.4 20:44:33 10° WNW 20:49:55 79° N 20:53:36 29° E
Cosmos 1125 Rocket 4.3 20:45:41 10° WSW 20:50:53 51° NW 20:56:06 10° NNE
COSMOS 2455 4.0 20:52:44 27° E 20:52:44 27° E 20:56:16 10° ENE
Aureole 1 Rocket 3.5 20:45:01 10° NW 20:51:21 76° NE 20:52:04 65° ESE
Cosmos 1943 Rocket 4.1 20:54:15 16° E 20:54:15 16° E 20:56:11 10° ENE
Cosmos 1726 2.9 20:54:28 50° NNW 20:54:28 50° NNW 20:57:26 10° N
NOSS 3-4 (A) 3.4 20:54:05 57° SE 20:54:05 57° SE 21:00:33 10° ENE
NOSS 3-4 (C) 3.5 20:54:16 56° SE 20:54:16 56° SE 21:00:39 10° ENE
Cosmos 1953 Rocket 3.6 20:52:08 10° NNW 20:56:13 77° N 20:56:13 77° N
NOSS 3-1 (A) 3.8 20:51:04 10° WNW 20:57:39 81° NNE 21:02:58 22° E
ERS-1 Rocket 4.4 20:57:24 24° WSW 20:59:00 29° W 21:03:24 10° NNW
Cosmos 2297 Rocket 3.7 20:54:13 10° NW 20:59:24 34° NNE 21:04:34 10° ENE
Cosmos 1606 Rocket 4.5 21:00:28 38° NE 21:00:28 38° NE 21:03:34 10° NNE
Cosmos 614 Rocket 4.4 20:55:03 10° NW 21:00:03 49° WSW 21:00:25 48° SW
Cosmos 1703 4.2 20:57:01 10° NNW 21:00:19 41° WNW 21:00:19 41° WNW
Lacrosse 4 Rocket 3.3 20:59:52 10° WNW 21:02:11 21° W 21:02:11 21° W
Cosmos 1953 2.8 21:03:49 60° NNW 21:03:49 60° NNW 21:07:21 10° NNE
COSMOS 2487 4.5 21:01:16 10° NNW 21:03:55 23° NNE 21:03:55 23° NNE
Cosmos 1356 Rocket 4.4 21:06:03 38° NE 21:06:03 38° NE 21:08:48 10° NNE
SL-08 ROCKET BODY 4.2 20:59:31 10° NNW 21:05:25 78° ENE 21:06:17 64° SE
Cosmos 1346 Rocket 4.3 21:05:12 10° N 21:08:21 29° NE 21:08:21 29° NE
SL-08 R/B 4.4 21:03:14 10° NNW 21:09:38 87° W 21:10:55 60° S
Cosmos 1892 3.9 21:06:37 10° N 21:09:21 38° NNE 21:09:21 38° NNE
Exosat Rocket 4.4 21:06:28 10° WSW 21:11:23 49° NW 21:16:31 10° NE
NOSS 2-2 (E) 3.8 21:07:57 10° W 21:12:02 73° N 21:17:27 10° ENE
SL-27 R/B 3.9 21:08:35 10° NNW 21:11:01 39° N 21:11:01 39° N
SME Rocket 3.9 21:06:22 10° NNE 21:13:42 83° WNW 21:14:54 57° SW
Cosmos 1470 4.3 21:13:24 28° W 21:14:08 30° WNW 21:17:38 10° N
CZ-4C R/B 3.7 21:16:50 24° E 21:16:50 24° E 21:19:59 10° ENE
ATLAS CENTAUR R/B 2.5 21:11:23 10° WNW 21:13:40 35° NW 21:13:40 35° NW
Cosmos 2369 Rocket 4.1 21:17:31 16° E 21:17:31 16° E 21:19:50 10° ENE
Thor Agena Rocket 4.2 21:12:10 10° NNE 21:16:46 41° E 21:16:46 41° E
ATLAS 2AS CENTAUR R/B 2.9 21:11:59 22° SW 21:17:29 69° SE 21:25:09 10° ENE
Cosmos 1741 Rocket 4.2 21:13:04 10° NNW 21:18:24 62° NE 21:19:07 56° E
In-Cosmos 22 Rocket 4.0 21:13:51 10° NNW 21:19:29 80° ENE 21:19:56 73° ESE
NOSS 2-2 (D) 3.9 21:16:27 10° W 21:22:04 41° ENE 21:25:45 10° ENE
Cosmos 2278 Rocket 2.0 21:22:33 73° SSW 21:23:06 83° SE 21:28:48 10° NE
Cosmos 1844 4.4 21:17:58 10° WSW 21:23:31 52° NNW 21:29:02 10° NE
Cosmos 1908 4.2 21:26:36 44° N 21:26:36 44° N 21:29:22 10° NNE
Cosmos 2151 4.4 21:22:38 10° N 21:26:24 31° ENE 21:26:24 31° ENE
RESURS DK-1 4.2 21:30:24 23° ENE 21:30:24 23° ENE 21:32:06 10° NE
SJ 16-02 4.5 21:25:40 10° NW 21:28:10 15° N 21:30:40 10° NNE
ATLAS 3B R/B 4.2 21:24:11 10° WNW 21:29:01 21° WSW 21:30:03 20° SW
Cosmos 2263 Rocket 3.9 21:24:12 10° WNW 21:29:15 33° N 21:34:21 10° NE
Cosmos 1408 4.1 21:26:59 10° N 21:29:17 33° NNE 21:29:17 33° NNE
Lacrosse 5 rocket 3.9 21:30:05 10° W 21:30:50 14° W 21:30:50 14° W
Meteor 2-8 Rocket 4.3 21:33:40 67° SE 21:34:14 72° E 21:40:17 10° NNE
Cosmos 1844 Rocket 3.7 21:30:06 10° W 21:35:28 44° NNW 21:40:52 10° NE
NOSS 3-1 (C) 3.7 21:32:12 10° WNW 21:39:00 81° SSW 21:41:28 47° SE
Cosmos 2058 Rocket 3.9 21:43:01 45° NE 21:43:01 45° NE 21:46:18 10° NNE
Cosmos 2056 Rocket 4.4 21:43:24 36° E 21:43:24 36° E 21:47:19 10° NE
Cosmos 1825 3.6 21:40:22 10° N 21:42:57 36° NNE 21:42:57 36° NNE
Cosmos 1553 Rocket 3.9 21:45:43 67° S 21:46:38 82° E 21:53:06 10° NNE
NOSS 2-3 (E) 4.4 21:42:18 10° WNW 21:47:55 85° SSW 21:49:36 54° ESE
Cosmos 1300 4.1 21:50:32 36° NNE 21:50:32 36° NNE 21:52:55 10° NNE
Cosmos 1386 Rocket 4.5 21:46:32 10° NNW 21:52:40 69° W 21:53:28 62° SW
Cosmos 1076 Rocket 4.0 21:48:31 10° NNW 21:52:08 58° N 21:52:08 58° N
Cosmos 1833 4.1 21:48:13 10° NW 21:54:00 77° SW 21:54:07 77° SW
Cosmos 1745 Rocket 4.0 21:49:57 10° NNW 21:56:01 63° W 21:56:46 58° SW
Cosmos 1375 Rocket 4.4 21:50:18 10° WNW 21:56:54 80° SW 21:57:49 67° SSE
Cosmos 2227 Rocket 3.4 21:51:35 10° NW 21:56:57 41° NNE 22:01:46 13° E
Terra 4.0 21:58:06 15° W 21:58:57 16° W 22:01:50 10° NW
Cosmos 1850 Rocket 3.9 21:53:57 10° NW 21:58:55 79° WNW 21:58:55 79° WNW
Timation 2 Rocket 4.3 21:55:17 10° NW 22:01:20 61° NNE 22:04:09 33° E
Cosmos 2228 3.6 22:02:04 53° NNW 22:02:04 53° NNW 22:05:41 10° N
Cosmos 2058 3.7 21:58:38 10° NNW 22:01:51 50° NNW 22:01:51 50° NNW
NOSS 2-2 (C) 4.0 22:01:06 10° W 22:05:48 64° NE 22:10:50 10° E
USA 234 3.5 21:58:55 10° E 22:06:56 49° SW 22:11:54 10° WSW
Meteor 2-3 Rocket 4.3 22:00:03 10° NNW 22:05:28 47° ENE 22:06:33 42° E
Helios 1A 3.6 22:07:41 54° N 22:07:41 54° N 22:10:59 10° NNW
ALOS 2 3.6 22:10:50 41° WNW 22:10:50 41° WNW 22:14:14 10° NNW
Cosmos 2219 4.0 22:05:13 10° NW 22:10:44 48° NNE 22:14:03 23° E
NOSS 2-3 (D) 4.4 22:08:31 10° WNW 22:14:11 77° SSW 22:15:07 65° SSE
Cosmos 1624 Rocket 4.3 22:16:11 56° E 22:16:11 56° E 22:20:43 10° NE
Cosmos 1633 4.4 22:18:15 10° N 22:20:42 28° NE 22:20:42 28° NE
Meteor 2-15 4.3 22:22:36 72° SSW 22:23:18 87° WNW 22:29:30 10° NNE
Cosmos 2074 Rocket 4.1 22:18:50 10° NNW 22:25:11 70° ENE 22:26:18 58° SE
Cosmos 1340 4.4 22:21:36 10° NNW 22:23:39 28° NW 22:23:39 28° NW
Cosmos 968 Rocket 4.3 22:21:32 10° NNW 22:26:39 48° NE 22:28:22 35° E
SL-16 R/B 3.3 22:27:14 29° ESE 22:30:01 46° NE 22:35:53 10° NNW
Cosmos 1709 Rocket 4.0 22:24:57 10° NNW 22:30:59 61° W 22:31:31 59° WSW
Cosmos 1943 Rocket 2.3 22:35:46 59° ESE 22:35:46 59° ESE 22:40:53 10° NE
COSMOS 2455 2.7 22:35:51 75° SSW 22:36:23 85° SE 22:42:29 10° NE
USA 229 DEB 3.8 22:29:39 10° WNW 22:36:38 63° SW 22:37:22 60° S
USA 229 3.8 22:29:45 10° WNW 22:36:44 64° SW 22:37:28 60° S
CZ-2D R/B 4.2 22:34:42 10° NE 22:37:59 16° E 22:39:26 15° E
Cosmos 1315 Rocket 4.4 22:40:25 30° ENE 22:40:25 30° ENE 22:42:52 10° NNE
S3M 4.0 22:38:35 60° WSW 22:39:32 69° WNW 22:45:42 10° NNE
NOSS 2-3 (C) 4.5 22:35:04 10° WNW 22:40:51 65° SW 22:40:57 65° SSW
Meteor 2-10 Rocket 3.6 22:43:49 74° SE 22:44:08 77° ESE 22:49:55 10° NNE
Cosmos 2297 Rocket 2.6 22:38:49 10° NW 22:44:28 59° NE 22:47:05 31° ESE
Nimbus 7 Rocket 4.3 22:38:44 10° NNE 22:44:47 84° WNW 22:45:36 68° SW
NOSS 3-4 (A) 3.5 22:41:29 30° W 22:44:51 82° NNW 22:51:47 10° ENE
NOSS 3-4 (C) 3.5 22:41:39 31° W 22:44:57 82° NNW 22:51:54 10° ENE
Cosmos 1346 Rocket 4.3 22:41:28 10° NNW 22:43:50 32° NW 22:43:50 32° NW
APEX 4.4 22:47:42 43° NNE 22:47:42 43° NNE 22:51:06 10° NE
NOSS 3-1 (A) 3.8 22:41:51 10° WNW 22:48:43 66° SW 22:50:19 54° SSE
Resurs 1-4 Rocket 3.9 22:48:43 10° NE 22:52:32 20° E 22:53:50 18° ESE
Okean 3 Rocket 4.0 22:48:43 10° NNW 22:52:35 63° NNW 22:52:35 63° NNW
Cosmos 2297 3.6 22:53:56 71° WSW 22:54:32 80° NW 23:00:15 10° NE
Cosmos 1441 Rocket 4.3 22:52:07 10° NNW 22:55:15 44° NNE 22:55:15 44° NNE
Thor Agena Rocket 4.0 22:51:33 10° NNE 22:56:43 54° WNW 22:57:20 51° W
CZ-4 R/B 4.4 22:52:51 10° NNE 22:57:24 48° E 22:57:24 48° E
Cosmos 1400 Rocket 3.7 22:59:55 48° N 22:59:55 48° N 23:03:01 10° NNE
Cosmos 2369 Rocket 2.3 22:59:19 61° ESE 22:59:19 61° ESE 23:04:49 10° NE
Cosmos 304 Rocket 4.3 22:59:55 51° E 22:59:55 51° E 23:03:56 10° NE
Cosmos 2315 Rocket 3.9 22:58:39 67° SSW 22:59:35 85° WNW 23:05:56 10° NNE
Cosmos 1455 3.5 23:01:58 39° N 23:01:58 39° N 23:04:28 10° NNE
MOZ.5/SAFIR/RUBIN 5/SL-8 4.0 23:02:09 63° ENE 23:02:10 63° ENE 23:06:47 10° NNW
CZ-4C R/B 2.2 23:02:00 73° S 23:02:18 76° SSE 23:09:05 10° ENE
NOSS 2-2 (E) 3.9 22:58:23 10° WNW 23:02:56 84° NNE 23:09:10 10° ESE
Cosmos 2151 4.0 22:59:51 10° NNW 23:02:58 41° NW 23:02:58 41° NW
Cosmos 2184 Rocket 3.8 22:58:56 10° NNW 23:05:07 78° W 23:05:50 69° SSW
RESURS DK-1 3.3 23:06:17 45° NNW 23:06:17 45° NNW 23:10:15 10° NE
Cosmos 2278 Rocket 3.2 23:04:22 22° W 23:07:42 43° NNW 23:13:07 10° NE
Cosmos 1408 Rocket 3.9 23:03:56 10° NNW 23:07:40 61° NNE 23:07:40 61° NNE
SJ 16-02 4.1 23:05:23 10° NNW 23:08:27 18° NNE 23:11:31 10° ENE
ATLAS 2AS CENTAUR R/B 3.0 23:00:37 10° W 23:08:38 80° NNW 23:16:14 10° ENE
Cosmos 1371 Rocket 4.2 23:08:46 63° W 23:09:19 67° NW 23:14:42 10° NNE
Cosmos 1486 Rocket 4.0 23:04:02 10° NW 23:09:21 78° NE 23:09:57 68° ESE
Meteor 2-17 Rocket 4.4 23:03:32 10° NNW 23:09:38 65° W 23:10:08 62° SW
Cosmos 1503 Rocket 4.4 23:06:03 10° NNW 23:11:13 58° NE 23:12:56 39° ESE
NOSS 2-2 (D) 3.9 23:06:54 10° WNW 23:11:22 83° NNE 23:17:27 10° ESE
Cosmos 2263 Rocket 3.7 23:09:21 10° NW 23:14:33 36° NNE 23:19:47 10° E
Cosmos-2242 3.4 23:19:34 61° NE 23:19:34 61° NE 23:23:13 10° NNE
Cosmos 1825 4.3 23:16:10 10° NNW 23:17:44 19° NW 23:17:44 19° NW
Helios 1B rocket 3.3 23:15:23 10° NNE 23:18:47 44° ENE 23:18:47 44° ENE
Cosmos 2058 Rocket 4.4 23:20:18 30° WNW 23:20:18 30° WNW 23:24:12 10° N
Cosmos 1844 Rocket 4.4 23:15:36 10° WNW 23:20:36 32° N 23:25:38 10° ENE
Geosat 4.0 23:21:33 68° W 23:21:33 68° W 23:26:10 10° NW
DELTA 2 DEB (DPAF) 4.3 23:23:12 70° NE 23:23:12 70° NE 23:27:34 10° NNW
Cosmos 2056 Rocket 3.7 23:23:44 56° W 23:24:25 62° NW 23:29:40 10° NNE
SL-8 Rocket 4.4 23:18:39 10° NNW 23:24:54 59° ENE 23:27:37 34° SE
Cosmos 1610 Rocket 4.3 23:21:57 10° NNW 23:28:08 77° W 23:29:04 64° SSW
Cosmos 2221 3.8 23:29:15 31° E 23:29:21 31° E 23:33:11 10° NNE
NOSS 3-1 (C) 4.4 23:22:57 10° WNW 23:28:49 40° WSW 23:28:49 40° WSW
Cosmos 1766 Rocket 4.4 23:25:59 10° NNW 23:29:10 41° NW 23:29:10 41° NW
USA 81 3.9 23:27:05 10° N 23:32:25 88° WSW 23:32:46 79° S
COBE Rocket 4.2 23:31:37 52° ESE 23:32:38 65° ENE 23:37:44 10° NNW
Cosmos 1420 Rocket 4.0 23:35:15 69° W 23:35:46 75° NW 23:41:07 10° NE
CZ-4C R/B 3.8 23:35:34 63° E 23:35:47 64° ENE 23:40:11 10° NNW
Cosmos 2218 Rocket 4.4 23:29:45 10° NNW 23:36:06 60° ENE 23:39:21 29° SE
Cosmos 1295 Rocket 4.4 23:30:50 10° NNW 23:37:12 81° W 23:38:29 59° S
Cosmos 2366 rocket 4.4 23:32:28 10° NNW 23:38:42 60° ENE 23:41:56 29° SE
Cosmos 1812 Rocket 4.2 23:39:01 48° NW 23:39:01 48° NW 23:43:09 10° N
Cosmos 371 Rocket 3.5 23:39:59 57° WNW 23:40:19 58° NW 23:45:06 10° NNE
Sich 1 4.1 23:36:55 10° N 23:41:00 41° ENE 23:41:59 35° E
Cosmos 2227 Rocket 2.1 23:35:56 10° NW 23:41:38 88° NE 23:43:30 45° SE
Cosmos 332 Rocket 3.8 23:43:13 67° WNW 23:43:28 68° NW 23:48:24 10° NNE
Cosmos 1842 Rocket 4.3 23:43:34 45° ESE 23:43:47 45° E 23:48:05 10° NNE
Cosmos 1452 Rocket 3.3 23:43:44 76° SW 23:44:10 86° NW 23:49:29 10° NE
Cosmos 1743 Rocket 3.6 23:41:33 10° NNW 23:45:32 73° N 23:45:32 73° N
Meteor 2-3 Rocket 4.0 23:43:26 10° NNW 23:48:48 48° W 23:48:48 48° W
Timation 2 Rocket 4.0 23:42:54 10° NW 23:48:53 56° WSW 23:49:04 56° SW
USA 234 3.2 23:42:41 10° ESE 23:49:04 54° SSW 23:55:29 10° W
Cosmos 1500 Rocket 3.6 23:44:56 10° NNW 23:49:12 80° NNW 23:49:12 80° NNW
Meteor 2-12 Rocket 4.3 23:45:34 10° NNW 23:51:41 87° ENE 23:53:28 49° SSE
UNK 3.6 23:53:26 78° WNW 23:53:26 78° WNW 23:57:54 10° NNW
ADEOS II 3.8 23:50:30 10° NNE 23:54:49 25° E 23:57:32 17° SE
Cosmos 1633 4.4 23:53:02 10° NNW 23:54:47 24° NW 23:54:47 24° NW
